sat.trackr.live / text

‹ back to catalog

STARLINK-2436

NORAD 48101 · 2021-027K

PAYLOAD ACTIVE UNKNOWN

§ Identity

Operator
Country
US
Launch date
2021-04-07
Launch site
AFETR
Launch vehicle
Mass (kg)
RCS (m²)

Purposes: comms

External: N2YO · Heavens-Above · Gunter

§ Orbital elements

Epoch: 2026-09-19T18:52:15.851712Z

Period
94.01 min
Inclination
53.1621°
Eccentricity
0.0001556
Mean motion
15.31690050 rev/d
Perigee alt
469.7 km
Apogee alt
471.8 km
Semi-major
6,848.9 km
B*
-5.0608e-6
RAAN
331.7672°
Arg perigee
61.6464°
Mean anomaly
298.4694°
Rev number
30,240

§ Raw data

STARLINK-24361 48101U 21027K   26262.78629458 -.00000522  00000+0 -50608-5 0  99972 48101  53.1621 331.7672 0001556  61.6464 298.4694 15.31690050302408

JSON: /api/v1/satellites/48101 · /tle

For live sub-satellite position, see the globe view (requires WebGL).

§ Visibility from observer

Set your observer location to see the next 7 days of passes ≥ 10°. The values pass through the URL so the page stays shareable.

No JS? Fill the form by hand. The geolocation button needs JavaScript.